Time,TemperatureF,DewpointF,PressureIn,WindDirection,WindDirectionDegrees,WindSpeedMPH,WindSpeedGustMPH,Humidity,HourlyPrecipIn,Conditions,Clouds,dailyrainin,SoftwareType,DateUTC
2013-06-26 00:00:00,73.5,70.7,29.97,South,180,1.0,5.0,91,0.00,,SKC,0.00,VWS V13.00,2013-06-26 05:00:00,
2013-06-26 00:30:00,72.9,70.8,29.97,South,180,0.0,5.0,93,0.00,,SKC,0.00,VWS V13.00,2013-06-26 05:30:00,
2013-06-26 01:00:00,72.4,70.3,29.96,South,180,0.0,6.0,93,0.00,,SKC,0.00,VWS V13.00,2013-06-26 06:00:00,
2013-06-26 01:30:00,71.4,69.9,29.95,South,180,0.0,0.0,95,0.00,,SKC,0.00,VWS V13.00,2013-06-26 06:30:00,
2013-06-26 02:00:00,71.1,69.9,29.95,South,180,0.0,2.0,96,0.00,,SKC,0.00,VWS V13.00,2013-06-26 07:00:00,
2013-06-26 02:30:00,71.0,70.1,29.94,South,180,0.0,2.0,97,0.00,,SKC,0.00,VWS V13.00,2013-06-26 07:30:00,
2013-06-26 03:00:00,71.0,69.8,29.95,South,180,0.0,2.0,96,0.00,,SKC,0.00,VWS V13.00,2013-06-26 08:00:00,
2013-06-26 03:30:00,70.3,69.4,29.95,South,180,0.0,0.0,97,0.00,,SKC,0.00,VWS V13.00,2013-06-26 08:30:00,
2013-06-26 04:00:00,70.3,69.4,29.95,South,180,0.0,0.0,97,0.00,,SKC,0.00,VWS V13.00,2013-06-26 09:00:00,
2013-06-26 04:30:00,69.3,68.4,29.97,South,180,0.0,0.0,97,0.00,,SKC,0.00,VWS V13.00,2013-06-26 09:30:00,
2013-06-26 05:00:00,69.2,68.6,29.98,South,180,0.0,0.0,98,0.00,,SKC,0.00,VWS V13.00,2013-06-26 10:00:00,
2013-06-26 05:30:00,69.3,68.7,29.99,South,180,0.0,0.0,98,0.00,,SKC,0.00,VWS V13.00,2013-06-26 10:30:00,
2013-06-26 06:00:00,70.4,70.1,30.01,SSW,202,0.0,1.0,99,0.00,,SKC,0.00,VWS V13.00,2013-06-26 11:00:00,
2013-06-26 06:30:00,71.9,71.3,30.00,SSW,202,0.0,3.0,98,0.00,,SKC,0.00,VWS V13.00,2013-06-26 11:30:00,
2013-06-26 07:00:00,73.7,72.2,30.01,SW,225,1.0,6.0,95,0.00,,SKC,0.00,VWS V13.00,2013-06-26 12:00:00,
2013-06-26 07:37:00,75.7,73.5,30.01,WSW,248,2.0,7.0,93,0.00,,SKC,0.00,VWS V13.00,2013-06-26 12:37:00,
2013-06-26 07:42:00,76.4,73.9,30.01,WSW,238,1.0,7.0,92,0.00,,SKC,0.00,VWS V13.00,2013-06-26 12:42:00,
2013-06-26 07:47:00,76.8,74.0,30.01,WNW,288,3.0,7.0,91,0.00,,SKC,0.00,VWS V13.00,2013-06-26 12:47:00,
2013-06-26 07:52:00,77.2,74.4,30.01,WSW,250,2.0,7.0,91,0.00,,SKC,0.00,VWS V13.00,2013-06-26 12:52:00,
2013-06-26 07:57:00,77.7,74.5,30.01,WSW,239,5.0,7.0,90,0.00,,SKC,0.00,VWS V13.00,2013-06-26 12:57:00,
2013-06-26 08:02:00,78.1,74.6,30.01,West,264,4.0,4.0,89,0.00,,SKC,0.00,VWS V13.00,2013-06-26 13:02:00,
2013-06-26 08:07:00,78.5,75.0,30.01,WSW,253,4.0,8.0,89,0.00,,SKC,0.00,VWS V13.00,2013-06-26 13:07:00,
2013-06-26 08:12:00,78.6,74.8,30.01,WSW,250,5.0,8.0,88,0.00,,SKC,0.00,VWS V13.00,2013-06-26 13:12:00,
2013-06-26 08:17:00,78.8,74.3,30.01,WSW,249,4.0,8.0,86,0.00,,SKC,0.00,VWS V13.00,2013-06-26 13:17:00,
2013-06-26 08:22:00,78.9,74.4,30.01,West,261,3.0,8.0,86,0.00,,SKC,0.00,VWS V13.00,2013-06-26 13:22:00,
2013-06-26 08:27:00,79.0,74.1,30.01,West,261,9.0,12.0,85,0.00,,SKC,0.00,VWS V13.00,2013-06-26 13:27:00,
2013-06-26 08:32:00,79.2,74.7,30.01,SW,234,6.0,6.0,86,0.00,,SKC,0.00,VWS V13.00,2013-06-26 13:32:00,
2013-06-26 08:37:00,79.5,74.6,30.01,West,265,1.0,6.0,85,0.00,,SKC,0.00,VWS V13.00,2013-06-26 13:37:00,
2013-06-26 08:42:00,79.7,75.2,30.01,WSW,243,5.0,7.0,86,0.00,,SKC,0.00,VWS V13.00,2013-06-26 13:42:00,
2013-06-26 08:47:00,79.7,74.8,30.01,West,260,2.0,7.0,85,0.00,,SKC,0.00,VWS V13.00,2013-06-26 13:47:00,
2013-06-26 08:52:00,80.0,75.1,30.01,West,269,4.0,7.0,85,0.00,,SKC,0.00,VWS V13.00,2013-06-26 13:52:00,
2013-06-26 08:57:00,80.3,74.7,30.01,WSW,242,2.0,8.0,83,0.00,,SKC,0.00,VWS V13.00,2013-06-26 13:57:00,
2013-06-26 09:02:00,80.5,74.5,30.01,WNW,298,5.0,8.0,82,0.00,,SKC,0.00,VWS V13.00,2013-06-26 14:02:00,
2013-06-26 09:07:00,80.5,75.2,30.01,WNW,298,4.0,9.0,84,0.00,,SKC,0.00,VWS V13.00,2013-06-26 14:07:00,
2013-06-26 09:12:00,81.0,75.7,30.01,West,267,5.0,9.0,84,0.00,,SKC,0.00,VWS V13.00,2013-06-26 14:12:00,
2013-06-26 09:17:00,81.2,74.8,30.01,West,277,1.0,9.0,81,0.00,,SKC,0.00,VWS V13.00,2013-06-26 14:17:00,
2013-06-26 09:22:00,81.6,75.6,30.00,WNW,286,2.0,9.0,82,0.00,,SKC,0.00,VWS V13.00,2013-06-26 14:22:00,
2013-06-26 09:27:00,81.8,75.4,30.01,West,263,3.0,9.0,81,0.00,,SKC,0.00,VWS V13.00,2013-06-26 14:27:00,
2013-06-26 09:32:00,82.0,75.2,30.00,WNW,291,4.0,9.0,80,0.00,,SKC,0.00,VWS V13.00,2013-06-26 14:32:00,
2013-06-26 09:37:00,82.3,75.1,30.01,SSW,206,6.0,9.0,79,0.00,,SKC,0.00,VWS V13.00,2013-06-26 14:37:00,
2013-06-26 09:42:00,82.4,75.2,30.01,West,280,5.0,9.0,79,0.00,,SKC,0.00,VWS V13.00,2013-06-26 14:42:00,
2013-06-26 09:47:00,82.8,76.0,30.00,WNW,296,4.0,9.0,80,0.00,,SKC,0.00,VWS V13.00,2013-06-26 14:47:00,
2013-06-26 09:52:00,83.0,75.1,30.00,WSW,239,4.0,9.0,77,0.00,,SKC,0.00,VWS V13.00,2013-06-26 14:52:00,
2013-06-26 09:57:00,83.0,75.4,30.00,WSW,244,10.0,10.0,78,0.00,,SKC,0.00,VWS V13.00,2013-06-26 14:57:00,
2013-06-26 10:02:00,83.0,75.4,30.00,WNW,284,7.0,10.0,78,0.00,,SKC,0.00,VWS V13.00,2013-06-26 15:02:00,
2013-06-26 10:07:00,83.1,75.5,30.00,WNW,285,4.0,9.0,78,0.00,,SKC,0.00,VWS V13.00,2013-06-26 15:07:00,
2013-06-26 10:12:00,83.4,75.1,30.00,WSW,250,5.0,11.0,76,0.00,,SKC,0.00,VWS V13.00,2013-06-26 15:12:00,
2013-06-26 10:17:00,83.3,74.9,30.00,SSW,209,2.0,13.0,76,0.00,,SKC,0.00,VWS V13.00,2013-06-26 15:17:00,
2013-06-26 10:22:00,83.5,75.1,30.00,WSW,258,2.0,13.0,76,0.00,,SKC,0.00,VWS V13.00,2013-06-26 15:22:00,
2013-06-26 10:27:00,83.7,75.3,29.99,WNW,284,4.0,13.0,76,0.00,,SKC,0.00,VWS V13.00,2013-06-26 15:27:00,
2013-06-26 10:32:00,83.8,75.4,29.99,SW,221,7.0,13.0,76,0.00,,SKC,0.00,VWS V13.00,2013-06-26 15:32:00,
2013-06-26 10:37:00,83.8,75.0,29.99,WSW,254,6.0,12.0,75,0.00,,SKC,0.00,VWS V13.00,2013-06-26 15:37:00,
2013-06-26 10:42:00,84.0,76.0,29.99,WSW,257,8.0,14.0,77,0.00,,SKC,0.00,VWS V13.00,2013-06-26 15:42:00,
2013-06-26 10:47:00,84.0,74.4,29.99,SW,226,8.0,14.0,73,0.00,,SKC,0.00,VWS V13.00,2013-06-26 15:47:00,
2013-06-26 10:52:00,83.8,74.6,30.00,WNW,285,4.0,14.0,74,0.00,,SKC,0.00,VWS V13.00,2013-06-26 15:52:00,
2013-06-26 10:56:00,83.8,74.2,30.00,WSW,250,5.0,14.0,73,0.00,,SKC,0.00,VWS V13.00,2013-06-26 15:56:00,
2013-06-26 11:01:00,84.3,74.3,30.00,WNW,287,9.0,14.0,72,0.00,,SKC,0.00,VWS V13.00,2013-06-26 16:01:00,
2013-06-26 11:06:00,84.6,75.4,30.00,WNW,282,7.0,10.0,74,0.00,,SKC,0.00,VWS V13.00,2013-06-26 16:06:00,
2013-06-26 11:11:00,84.8,75.2,30.00,WSW,240,7.0,11.0,73,0.00,,SKC,0.00,VWS V13.00,2013-06-26 16:11:00,
2013-06-26 11:16:00,84.6,74.2,30.00,WNW,292,4.0,11.0,71,0.00,,SKC,0.00,VWS V13.00,2013-06-26 16:16:00,
2013-06-26 11:21:00,85.0,75.4,30.00,West,264,7.0,11.0,73,0.00,,SKC,0.00,VWS V13.00,2013-06-26 16:21:00,
2013-06-26 11:26:00,85.4,74.9,30.00,WSW,254,7.0,11.0,71,0.00,,SKC,0.00,VWS V13.00,2013-06-26 16:26:00,
2013-06-26 11:31:00,85.5,75.0,30.00,WSW,242,4.0,11.0,71,0.00,,SKC,0.00,VWS V13.00,2013-06-26 16:31:00,
2013-06-26 11:36:00,85.0,74.1,30.00,West,278,6.0,10.0,70,0.00,,SKC,0.00,VWS V13.00,2013-06-26 16:36:00,
2013-06-26 11:41:00,84.8,74.4,30.00,SSW,200,5.0,10.0,71,0.00,,SKC,0.00,VWS V13.00,2013-06-26 16:41:00,
2013-06-26 11:46:00,85.0,75.4,29.99,West,264,2.0,10.0,73,0.00,,SKC,0.00,VWS V13.00,2013-06-26 16:46:00,
2013-06-26 11:51:00,85.1,73.8,29.99,WSW,250,4.0,12.0,69,0.00,,SKC,0.00,VWS V13.00,2013-06-26 16:51:00,
2013-06-26 11:56:00,85.5,73.7,29.99,WNW,286,7.0,12.0,68,0.00,,SKC,0.00,VWS V13.00,2013-06-26 16:56:00,
2013-06-26 12:01:00,85.9,74.6,29.99,SW,214,1.0,12.0,69,0.00,,SKC,0.00,VWS V13.00,2013-06-26 17:01:00,
2013-06-26 12:06:00,86.6,75.2,29.99,WNW,290,6.0,9.0,69,0.00,,SKC,0.00,VWS V13.00,2013-06-26 17:06:00,
2013-06-26 12:11:00,86.5,74.2,29.98,West,267,4.0,11.0,67,0.00,,SKC,0.00,VWS V13.00,2013-06-26 17:11:00,
2013-06-26 12:16:00,86.3,73.6,29.98,SW,229,7.0,12.0,66,0.00,,SKC,0.00,VWS V13.00,2013-06-26 17:16:00,
2013-06-26 12:21:00,86.6,73.0,29.98,NW,308,5.0,12.0,64,0.00,,SKC,0.00,VWS V13.00,2013-06-26 17:21:00,
2013-06-26 12:26:00,86.2,73.5,29.98,West,262,5.0,12.0,66,0.00,,SKC,0.00,VWS V13.00,2013-06-26 17:26:00,
2013-06-26 12:31:00,86.1,74.3,29.98,SW,219,1.0,12.0,68,0.00,,SKC,0.00,VWS V13.00,2013-06-26 17:31:00,
2013-06-26 12:36:00,86.1,73.4,29.97,WSW,257,5.0,12.0,66,0.00,,SKC,0.00,VWS V13.00,2013-06-26 17:36:00,
2013-06-26 12:41:00,86.5,74.2,29.97,SW,219,6.0,12.0,67,0.00,,SKC,0.00,VWS V13.00,2013-06-26 17:41:00,
2013-06-26 12:46:00,87.0,74.7,29.97,West,265,5.0,14.0,67,0.00,,SKC,0.00,VWS V13.00,2013-06-26 17:46:00,
2013-06-26 12:51:00,87.3,74.1,29.97,West,268,5.0,14.0,65,0.00,,SKC,0.00,VWS V13.00,2013-06-26 17:51:00,
2013-06-26 12:56:00,86.9,73.7,29.97,West,269,4.0,14.0,65,0.00,,SKC,0.00,VWS V13.00,2013-06-26 17:56:00,
2013-06-26 13:01:00,87.1,73.9,29.97,SW,225,10.0,14.0,65,0.00,,SKC,0.00,VWS V13.00,2013-06-26 18:01:00,
2013-06-26 13:06:00,87.4,74.7,29.96,South,181,6.0,10.0,66,0.00,,SKC,0.00,VWS V13.00,2013-06-26 18:06:00,
2013-06-26 13:11:00,87.3,73.2,29.96,SW,220,7.0,12.0,63,0.00,,SKC,0.00,VWS V13.00,2013-06-26 18:11:00,
2013-06-26 13:16:00,87.5,73.4,29.96,SSW,210,11.0,12.0,63,0.00,,SKC,0.00,VWS V13.00,2013-06-26 18:16:00,
2013-06-26 13:21:00,87.5,73.8,29.95,SSW,207,9.0,12.0,64,0.00,,SKC,0.00,VWS V13.00,2013-06-26 18:21:00,
2013-06-26 13:26:00,87.0,72.4,29.95,SW,226,3.0,12.0,62,0.00,,SKC,0.00,VWS V13.00,2013-06-26 18:26:00,
2013-06-26 13:31:00,86.9,74.2,29.95,SW,236,5.0,12.0,66,0.00,,SKC,0.00,VWS V13.00,2013-06-26 18:31:00,
2013-06-26 13:36:00,87.8,74.6,29.95,NW,309,5.0,11.0,65,0.00,,SKC,0.00,VWS V13.00,2013-06-26 18:36:00,
2013-06-26 13:41:00,88.3,73.6,29.94,West,267,6.0,14.0,62,0.00,,SKC,0.00,VWS V13.00,2013-06-26 18:41:00,
2013-06-26 13:46:00,88.1,74.9,29.94,SW,218,11.0,14.0,65,0.00,,SKC,0.00,VWS V13.00,2013-06-26 18:46:00,
2013-06-26 13:51:00,87.6,74.4,29.94,WNW,290,9.0,14.0,65,0.00,,SKC,0.00,VWS V13.00,2013-06-26 18:51:00,
2013-06-26 13:56:00,88.1,73.9,29.93,WSW,248,5.0,16.0,63,0.00,,SKC,0.00,VWS V13.00,2013-06-26 18:56:00,
2013-06-26 14:01:00,88.3,74.1,29.93,South,186,10.0,16.0,63,0.00,,SKC,0.00,VWS V13.00,2013-06-26 19:01:00,
2013-06-26 14:06:00,87.9,73.7,29.93,SW,215,6.0,11.0,63,0.00,,SKC,0.00,VWS V13.00,2013-06-26 19:06:00,
2013-06-26 14:11:00,87.9,74.7,29.93,West,270,4.0,11.0,65,0.00,,SKC,0.00,VWS V13.00,2013-06-26 19:11:00,
2013-06-26 14:16:00,88.8,74.6,29.92,WNW,289,7.0,11.0,63,0.00,,SKC,0.00,VWS V13.00,2013-06-26 19:16:00,
2013-06-26 14:21:00,88.8,74.6,29.92,NW,304,5.0,11.0,63,0.00,,SKC,0.00,VWS V13.00,2013-06-26 19:21:00,
2013-06-26 14:26:00,88.9,74.2,29.92,NW,304,8.0,12.0,62,0.00,,SKC,0.00,VWS V13.00,2013-06-26 19:26:00,
2013-06-26 14:31:00,88.2,73.1,29.91,SW,215,8.0,12.0,61,0.00,,SKC,0.00,VWS V13.00,2013-06-26 19:31:00,
2013-06-26 14:36:00,87.5,74.3,29.91,WSW,239,6.0,9.0,65,0.00,,SKC,0.00,VWS V13.00,2013-06-26 19:36:00,
2013-06-26 14:41:00,87.9,74.7,29.91,SW,214,5.0,12.0,65,0.00,,SKC,0.00,VWS V13.00,2013-06-26 19:41:00,
2013-06-26 14:46:00,88.3,72.7,29.91,West,279,5.0,13.0,60,0.00,,SKC,0.00,VWS V13.00,2013-06-26 19:46:00,
2013-06-26 14:51:00,88.3,74.6,29.91,WSW,258,3.0,13.0,64,0.00,,SKC,0.00,VWS V13.00,2013-06-26 19:51:00,
2013-06-26 14:56:00,88.6,73.4,29.90,SSW,198,6.0,13.0,61,0.00,,SKC,0.00,VWS V13.00,2013-06-26 19:56:00,
2013-06-26 15:01:00,88.0,74.3,29.91,WNW,286,2.0,13.0,64,0.00,,SKC,0.00,VWS V13.00,2013-06-26 20:01:00,
2013-06-26 15:06:00,88.2,74.5,29.91,West,266,8.0,9.0,64,0.00,,SKC,0.00,VWS V13.00,2013-06-26 20:06:00,
2013-06-26 15:11:00,88.7,73.5,29.91,WSW,242,8.0,12.0,61,0.00,,SKC,0.00,VWS V13.00,2013-06-26 20:11:00,
2013-06-26 15:16:00,88.3,74.1,29.91,WSW,252,8.0,12.0,63,0.00,,SKC,0.00,VWS V13.00,2013-06-26 20:16:00,
2013-06-26 15:21:00,87.8,74.1,29.91,WSW,240,2.0,12.0,64,0.00,,SKC,0.00,VWS V13.00,2013-06-26 20:21:00,
2013-06-26 15:26:00,87.8,74.1,29.90,SSW,202,6.0,12.0,64,0.00,,SKC,0.00,VWS V13.00,2013-06-26 20:26:00,
2013-06-26 15:31:00,88.0,74.8,29.91,SW,228,4.0,12.0,65,0.00,,SKC,0.00,VWS V13.00,2013-06-26 20:31:00,
2013-06-26 15:36:00,88.4,74.2,29.90,West,280,8.0,13.0,63,0.00,,SKC,0.00,VWS V13.00,2013-06-26 20:36:00,
2013-06-26 15:41:00,88.0,74.3,29.91,WNW,285,8.0,13.0,64,0.00,,SKC,0.00,VWS V13.00,2013-06-26 20:41:00,
2013-06-26 15:46:00,88.2,74.5,29.91,WSW,244,5.0,13.0,64,0.00,,SKC,0.00,VWS V13.00,2013-06-26 20:46:00,
2013-06-26 15:51:00,88.3,74.1,29.91,West,268,5.0,16.0,63,0.00,,SKC,0.00,VWS V13.00,2013-06-26 20:51:00,
2013-06-26 15:56:00,88.3,74.1,29.91,SW,234,2.0,16.0,63,0.00,,SKC,0.00,VWS V13.00,2013-06-26 20:56:00,
2013-06-26 16:01:00,87.9,74.2,29.91,SW,231,4.0,16.0,64,0.00,,SKC,0.00,VWS V13.00,2013-06-26 21:01:00,
2013-06-26 16:06:00,87.1,73.9,29.91,SSW,213,6.0,9.0,65,0.00,,SKC,0.00,VWS V13.00,2013-06-26 21:06:00,
2013-06-26 16:11:00,87.5,74.8,29.91,NW,310,6.0,12.0,66,0.00,,SKC,0.00,VWS V13.00,2013-06-26 21:11:00,
2013-06-26 16:16:00,87.9,74.7,29.91,SW,216,2.0,12.0,65,0.00,,SKC,0.00,VWS V13.00,2013-06-26 21:16:00,
2013-06-26 16:21:00,88.1,74.4,29.91,West,278,4.0,12.0,64,0.00,,SKC,0.00,VWS V13.00,2013-06-26 21:21:00,
2013-06-26 16:26:00,88.7,74.0,29.90,SW,217,2.0,12.0,62,0.00,,SKC,0.00,VWS V13.00,2013-06-26 21:26:00,
2013-06-26 16:31:00,87.8,73.2,29.90,SW,222,9.0,12.0,62,0.00,,SKC,0.00,VWS V13.00,2013-06-26 21:31:00,
2013-06-26 16:36:00,86.8,73.6,29.90,SW,234,4.0,12.0,65,0.00,,SKC,0.00,VWS V13.00,2013-06-26 21:36:00,
2013-06-26 16:41:00,86.7,74.0,29.90,SSW,212,7.0,12.0,66,0.00,,SKC,0.00,VWS V13.00,2013-06-26 21:41:00,
2013-06-26 16:46:00,87.2,74.0,29.89,WNW,294,5.0,12.0,65,0.00,,SKC,0.00,VWS V13.00,2013-06-26 21:46:00,
2013-06-26 16:51:00,87.5,75.2,29.89,WSW,252,7.0,12.0,67,0.00,,SKC,0.00,VWS V13.00,2013-06-26 21:51:00,
2013-06-26 16:56:00,87.7,74.5,29.89,WSW,258,3.0,12.0,65,0.00,,SKC,0.00,VWS V13.00,2013-06-26 21:56:00,
2013-06-26 17:01:00,87.5,74.8,29.88,South,185,3.0,14.0,66,0.00,,SKC,0.00,VWS V13.00,2013-06-26 22:01:00,
2013-06-26 17:06:00,87.7,74.5,29.88,WSW,253,9.0,11.0,65,0.00,,SKC,0.00,VWS V13.00,2013-06-26 22:06:00,
2013-06-26 17:11:00,87.6,74.4,29.88,SSW,203,8.0,11.0,65,0.00,,SKC,0.00,VWS V13.00,2013-06-26 22:11:00,
2013-06-26 17:16:00,87.5,74.3,29.88,SSW,193,6.0,13.0,65,0.00,,SKC,0.00,VWS V13.00,2013-06-26 22:16:00,
2013-06-26 17:21:00,87.5,73.8,29.88,SW,215,8.0,13.0,64,0.00,,SKC,0.00,VWS V13.00,2013-06-26 22:21:00,
2013-06-26 17:26:00,87.6,73.9,29.87,West,262,8.0,13.0,64,0.00,,SKC,0.00,VWS V13.00,2013-06-26 22:26:00,
2013-06-26 17:31:00,87.6,73.9,29.87,SW,220,4.0,13.0,64,0.00,,SKC,0.00,VWS V13.00,2013-06-26 22:31:00,
2013-06-26 17:36:00,87.7,73.6,29.87,SW,214,9.0,12.0,63,0.00,,SKC,0.00,VWS V13.00,2013-06-26 22:36:00,
2013-06-26 17:41:00,87.1,73.9,29.88,SSW,205,5.0,13.0,65,0.00,,SKC,0.00,VWS V13.00,2013-06-26 22:41:00,
2013-06-26 17:46:00,87.0,73.8,29.87,SW,223,5.0,13.0,65,0.00,,SKC,0.00,VWS V13.00,2013-06-26 22:46:00,
2013-06-26 17:51:00,86.9,73.7,29.87,WSW,254,8.0,13.0,65,0.00,,SKC,0.00,VWS V13.00,2013-06-26 22:51:00,
2013-06-26 17:56:00,86.9,73.7,29.87,West,266,5.0,13.0,65,0.00,,SKC,0.00,VWS V13.00,2013-06-26 22:56:00,
2013-06-26 18:01:00,86.9,73.7,29.87,SW,225,8.0,13.0,65,0.00,,SKC,0.00,VWS V13.00,2013-06-26 23:01:00,
2013-06-26 18:06:00,86.8,73.6,29.87,SSW,207,7.0,9.0,65,0.00,,SKC,0.00,VWS V13.00,2013-06-26 23:06:00,
2013-06-26 18:11:00,86.8,73.6,29.87,SSW,213,4.0,11.0,65,0.00,,SKC,0.00,VWS V13.00,2013-06-26 23:11:00,
2013-06-26 18:16:00,86.6,73.9,29.87,West,261,7.0,11.0,66,0.00,,SKC,0.00,VWS V13.00,2013-06-26 23:16:00,
2013-06-26 18:21:00,86.3,73.6,29.86,SW,223,6.0,11.0,66,0.00,,SKC,0.00,VWS V13.00,2013-06-26 23:21:00,
2013-06-26 18:26:00,85.9,73.2,29.86,South,186,3.0,11.0,66,0.00,,SKC,0.00,VWS V13.00,2013-06-26 23:26:00,
2013-06-26 18:31:00,85.7,73.9,29.86,WSW,250,8.0,11.0,68,0.00,,SKC,0.00,VWS V13.00,2013-06-26 23:31:00,
2013-06-26 18:36:00,85.7,73.9,29.86,SW,233,4.0,11.0,68,0.00,,SKC,0.00,VWS V13.00,2013-06-26 23:36:00,
2013-06-26 18:41:00,85.5,73.7,29.86,SSW,202,9.0,11.0,68,0.00,,SKC,0.00,VWS V13.00,2013-06-26 23:41:00,
2013-06-26 18:46:00,85.4,73.6,29.86,SW,215,4.0,12.0,68,0.00,,SKC,0.00,VWS V13.00,2013-06-26 23:46:00,
2013-06-26 18:51:00,85.4,74.5,29.87,SW,225,3.0,12.0,70,0.00,,SKC,0.00,VWS V13.00,2013-06-26 23:51:00,
2013-06-26 18:56:00,85.4,73.6,29.87,West,265,10.0,12.0,68,0.00,,SKC,0.00,VWS V13.00,2013-06-26 23:56:00,
2013-06-26 19:01:00,85.2,73.9,29.86,SW,223,2.0,12.0,69,0.00,,SKC,0.00,VWS V13.00,2013-06-27 00:01:00,
2013-06-26 19:06:00,85.0,73.7,29.86,SW,234,5.0,9.0,69,0.00,,SKC,0.00,VWS V13.00,2013-06-27 00:06:00,
2013-06-26 19:11:00,85.0,74.1,29.87,SW,225,1.0,9.0,70,0.00,,SKC,0.00,VWS V13.00,2013-06-27 00:11:00,
2013-06-26 19:16:00,84.8,73.9,29.86,SW,232,7.0,9.0,70,0.00,,SKC,0.00,VWS V13.00,2013-06-27 00:16:00,
2013-06-26 19:21:00,84.6,73.7,29.87,SW,220,1.0,9.0,70,0.00,,SKC,0.00,VWS V13.00,2013-06-27 00:21:00,
2013-06-26 19:25:00,84.4,74.0,29.87,SW,223,5.0,9.0,71,0.00,,SKC,0.00,VWS V13.00,2013-06-27 00:25:00,
2013-06-26 19:30:00,84.2,74.2,29.87,SW,236,1.0,9.0,72,0.00,,SKC,0.00,VWS V13.00,2013-06-27 00:30:00,
2013-06-26 19:35:00,83.9,73.9,29.87,SSW,202,4.0,5.0,72,0.00,,SKC,0.00,VWS V13.00,2013-06-27 00:35:00,
2013-06-26 19:40:00,83.5,73.9,29.87,SW,236,0.0,6.0,73,0.00,,SKC,0.00,VWS V13.00,2013-06-27 00:40:00,
2013-06-26 19:45:00,83.2,74.5,29.87,SW,229,2.0,6.0,75,0.00,,SKC,0.00,VWS V13.00,2013-06-27 00:45:00,
2013-06-26 19:50:00,82.8,74.1,29.87,SSW,199,1.0,6.0,75,0.00,,SKC,0.00,VWS V13.00,2013-06-27 00:50:00,
2013-06-26 19:55:00,82.4,74.1,29.87,SSW,194,0.0,6.0,76,0.00,,SKC,0.00,VWS V13.00,2013-06-27 00:55:00,
2013-06-26 20:00:00,82.0,74.1,29.88,SSW,194,0.0,6.0,77,0.00,,SKC,0.00,VWS V13.00,2013-06-27 01:00:00,
2013-06-26 20:05:00,81.6,74.1,29.87,SSW,194,0.0,1.0,78,0.00,,SKC,0.00,VWS V13.00,2013-06-27 01:05:00,
2013-06-26 20:10:00,81.1,74.0,29.87,SSW,194,0.0,1.0,79,0.00,,SKC,0.00,VWS V13.00,2013-06-27 01:10:00,
2013-06-26 20:15:00,80.6,73.9,29.87,SSW,194,0.0,1.0,80,0.00,,SKC,0.00,VWS V13.00,2013-06-27 01:15:00,
2013-06-26 20:20:00,80.3,73.9,29.87,SSW,194,4.0,4.0,81,0.00,,SKC,0.00,VWS V13.00,2013-06-27 01:20:00,
2013-06-26 20:25:00,80.1,74.1,29.87,SSW,209,2.0,4.0,82,0.00,,SKC,0.00,VWS V13.00,2013-06-27 01:25:00,
2013-06-26 20:30:00,80.1,74.1,29.87,SSW,208,0.0,5.0,82,0.00,,SKC,0.00,VWS V13.00,2013-06-27 01:30:00,
2013-06-26 20:35:00,80.0,74.0,29.87,SW,221,0.0,4.0,82,0.00,,SKC,0.00,VWS V13.00,2013-06-27 01:35:00,
2013-06-26 20:40:00,79.9,73.9,29.86,SSW,204,1.0,4.0,82,0.00,,SKC,0.00,VWS V13.00,2013-06-27 01:40:00,
2013-06-26 20:45:00,79.7,74.1,29.86,SSW,204,1.0,4.0,83,0.00,,SKC,0.00,VWS V13.00,2013-06-27 01:45:00,
2013-06-26 20:50:00,79.6,74.0,29.86,SSW,202,2.0,4.0,83,0.00,,SKC,0.00,VWS V13.00,2013-06-27 01:50:00,
2013-06-26 20:55:00,79.5,73.9,29.86,SSW,204,0.0,4.0,83,0.00,,SKC,0.00,VWS V13.00,2013-06-27 01:55:00,
2013-06-26 21:00:00,79.4,73.8,29.86,SSW,207,0.0,4.0,83,0.00,,SKC,0.00,VWS V13.00,2013-06-27 02:00:00,
2013-06-26 21:05:00,79.3,74.1,29.86,SW,219,0.0,3.0,84,0.00,,SKC,0.00,VWS V13.00,2013-06-27 02:05:00,
2013-06-26 21:10:00,79.3,74.1,29.86,SW,216,4.0,6.0,84,0.00,,SKC,0.00,VWS V13.00,2013-06-27 02:10:00,
2013-06-26 21:15:00,79.3,73.7,29.86,SSW,205,1.0,7.0,83,0.00,,SKC,0.00,VWS V13.00,2013-06-27 02:15:00,
2013-06-26 21:20:00,79.3,74.1,29.86,SW,219,3.0,7.0,84,0.00,,SKC,0.00,VWS V13.00,2013-06-27 02:20:00,
2013-06-26 21:25:00,79.3,73.7,29.86,SSW,197,3.0,7.0,83,0.00,,SKC,0.00,VWS V13.00,2013-06-27 02:25:00,
2013-06-26 21:30:00,79.4,73.8,29.86,SSW,193,1.0,8.0,83,0.00,,SKC,0.00,VWS V13.00,2013-06-27 02:30:00,
2013-06-26 21:35:00,79.7,73.7,29.86,SW,223,2.0,7.0,82,0.00,,SKC,0.00,VWS V13.00,2013-06-27 02:35:00,
2013-06-26 21:40:00,79.8,73.8,29.87,SW,223,0.0,7.0,82,0.00,,SKC,0.00,VWS V13.00,2013-06-27 02:40:00,
2013-06-26 21:45:00,79.7,73.7,29.87,SSW,213,0.0,7.0,82,0.00,,SKC,0.00,VWS V13.00,2013-06-27 02:45:00,
2013-06-26 21:50:00,79.6,73.6,29.86,SW,217,1.0,8.0,82,0.00,,SKC,0.00,VWS V13.00,2013-06-27 02:50:00,
2013-06-26 21:55:00,79.6,73.3,29.86,SW,220,5.0,9.0,81,0.00,,SKC,0.00,VWS V13.00,2013-06-27 02:55:00,
2013-06-26 22:00:00,79.6,73.3,29.86,West,261,0.0,9.0,81,0.00,,SKC,0.00,VWS V13.00,2013-06-27 03:00:00,
2013-06-26 22:05:00,79.5,73.5,29.86,SSW,213,1.0,4.0,82,0.00,,SKC,0.00,VWS V13.00,2013-06-27 03:05:00,
2013-06-26 22:10:00,79.3,73.3,29.87,SSW,196,2.0,6.0,82,0.00,,SKC,0.00,VWS V13.00,2013-06-27 03:10:00,
2013-06-26 22:15:00,79.1,73.5,29.87,SW,221,2.0,6.0,83,0.00,,SKC,0.00,VWS V13.00,2013-06-27 03:15:00,
2013-06-26 22:20:00,79.0,73.4,29.88,West,275,0.0,7.0,83,0.00,,SKC,0.00,VWS V13.00,2013-06-27 03:20:00,
2013-06-26 22:25:00,79.0,73.4,29.88,SW,231,1.0,8.0,83,0.00,,SKC,0.00,VWS V13.00,2013-06-27 03:25:00,
2013-06-26 22:30:00,79.0,73.4,29.89,WSW,248,3.0,8.0,83,0.00,,SKC,0.00,VWS V13.00,2013-06-27 03:30:00,
2013-06-26 22:35:00,78.9,73.3,29.89,WSW,237,0.0,7.0,83,0.00,,SKC,0.00,VWS V13.00,2013-06-27 03:35:00,
2013-06-26 22:40:00,78.8,73.2,29.89,WSW,256,1.0,7.0,83,0.00,,SKC,0.00,VWS V13.00,2013-06-27 03:40:00,
2013-06-26 22:45:00,78.8,73.2,29.89,WNW,282,1.0,7.0,83,0.00,,SKC,0.00,VWS V13.00,2013-06-27 03:45:00,
2013-06-26 22:50:00,78.7,73.1,29.89,SW,234,0.0,8.0,83,0.00,,SKC,0.00,VWS V13.00,2013-06-27 03:50:00,
2013-06-26 22:55:00,78.6,73.0,29.90,West,267,1.0,8.0,83,0.00,,SKC,0.00,VWS V13.00,2013-06-27 03:55:00,
2013-06-26 23:00:00,78.5,72.9,29.90,WSW,244,0.0,8.0,83,0.00,,SKC,0.00,VWS V13.00,2013-06-27 04:00:00,
2013-06-26 23:01:00,78.4,72.8,29.90,WSW,242,4.0,8.0,83,0.00,,SKC,0.00,VWS V13.00,2013-06-27 04:01:00,
2013-06-26 23:06:00,78.3,72.7,29.90,SW,225,0.0,6.0,83,0.00,,SKC,0.00,VWS V13.00,2013-06-27 04:06:00,
2013-06-26 23:11:00,78.3,72.7,29.91,West,260,0.0,6.0,83,0.00,,SKC,0.00,VWS V13.00,2013-06-27 04:11:00,
2013-06-26 23:16:00,78.2,72.6,29.91,West,270,0.0,7.0,83,0.00,,SKC,0.00,VWS V13.00,2013-06-27 04:16:00,
2013-06-26 23:21:00,78.1,72.5,29.91,WSW,249,3.0,7.0,83,0.00,,SKC,0.00,VWS V13.00,2013-06-27 04:21:00,
2013-06-26 23:26:00,78.0,72.8,29.91,WSW,248,0.0,7.0,84,0.00,,SKC,0.00,VWS V13.00,2013-06-27 04:26:00,
2013-06-26 23:31:00,77.8,72.6,29.91,West,273,0.0,7.0,84,0.00,,SKC,0.00,VWS V13.00,2013-06-27 04:31:00,
2013-06-26 23:36:00,77.7,72.5,29.91,West,273,0.0,2.0,84,0.00,,SKC,0.00,VWS V13.00,2013-06-27 04:36:00,
2013-06-26 23:41:00,77.6,72.4,29.91,West,273,0.0,2.0,84,0.00,,SKC,0.00,VWS V13.00,2013-06-27 04:41:00,
2013-06-26 23:46:00,77.2,72.3,29.91,West,273,0.0,2.0,85,0.00,,SKC,0.00,VWS V13.00,2013-06-27 04:46:00,
2013-06-26 23:51:00,76.9,72.4,29.91,West,273,0.0,2.0,86,0.00,,SKC,0.00,VWS V13.00,2013-06-27 04:51:00,
2013-06-26 23:56:00,76.6,72.1,29.91,West,273,0.0,2.0,86,0.00,,SKC,0.00,VWS V13.00,2013-06-27 04:56:00,